Regional Weather Roundup
Issued by NWS Sioux Falls, SD

Home | Current Version | Previous Version | Text Only | Print | Product List | Glossary Off
Versions: 1 2 3 4 5 6 7 8 9 10 11 12 13 14 15 16 17 18 19 20 21 22 23 24 25 26 27 28 29 30 31 32 33 34 35 36 37 38 39 40 41 42 43 44 45 46 47 48 49 50

000
ASUS43 KFSD 071902
RWRFSD

WEATHER ROUNDUP FOR SE SOUTH DAKOTA/SW MINNESOTA/NW IOWA
NATIONAL WEATHER SERVICE SIOUX FALLS SD
100 PM CST SUN FEB 07 2016

NOTE: "FAIR" INDICATES FEW OR NO CLOUDS BELOW 12,000 FEET WITH NO
SIGNIFICANT WEATHER AND OR OBSTRUCTIONS TO VISIBILITY.


SDZ038>040-050-052>070-072000-
SOUTHEAST SOUTH DAKOTA

CITY           SKY/WX    TMP DP  RH WIND       PRES   REMARKS
BROOKINGS      CLOUDY    33  28  81 NW25G35   29.74F WCI  20
CHAMBERLAIN    NOT AVBL
HURON          FLURRIES  33  29  85 NW33G44   29.85S WCI  18
MADISON        LGT SNOW  32  32 100 NW28G33   29.80F WCI  18
MITCHELL       CLOUDY    35  30  82 W30G43    29.89F WCI  22
SIOUX FALLS    LGT SNOW  34  29  82 W23G30    29.82F WCI  22
WINNER         FLURRIES  36  21  54 NW37G52   30.01F
YANKTON        MOSUNNY  N/A N/A N/A NW35G46   29.90F
$$

MNZ071-072-080-081-089-090-097-098-072000-
SOUTHWEST MINNESOTA

CITY           SKY/WX    TMP DP  RH WIND       PRES   REMARKS
FAIRMONT       SUNNY     39  27  60 W21G30    29.73F
JACKSON        SUNNY     36  27  69 W28G35    29.75F
LUVERNE        PTSUNNY   36  32  87 W25G32    29.80F
MARSHALL       LGT RAIN  35  29  78 W22       29.72S WCI  23
MONTEVIDEO     CLOUDY    37  30  75 NW17G23   29.70F
PIPESTONE      CLOUDY    36  27  69 NW23G36   29.76F
REDWOOD FALLS  CLOUDY    38  29  70 W21G30    29.70F
TRACY          MOSUNNY   37  30  77 W15G25    29.73F
WINDOM         PTSUNNY   36  28  75 W28G37    29.73F
WORTHINGTON    SUNNY     34  27  75 W24       29.77F WCI  21
$$

IAZ001>003-012>014-020>022-031-032-NEZ013-014-SDZ071-072000-
NORTHWEST IOWA

CITY           SKY/WX    TMP DP  RH WIND       PRES   REMARKS
ESTHERVILLE    SUNNY     37  27  67 W28G37    29.75F
SIOUX CITY     CLOUDY    41  23  48 NW23G32   29.89F
SPENCER        SUNNY     37  27  67 W26       29.80F
STORM LAKE     MOSUNNY   37  30  75 W26G33    29.84F
$$

ABBREVIATIONS USED IN REMARKS
   TC - TEMPERATURE IN CELSIUS
  WCI - WIND CHILL INDEX
   HX - HEAT INDEX
  VSB - VISIBILITY




USA.gov is the U.S. government's official web portal to all federal, state and local government web resources and services.